Regional Weather Roundup
Issued by NWS

Home | Current Version | Previous Version | Text Only | Print | Product List | Glossary On
Versions: 1 2 3 4 5 6 7 8 9 10 11 12 13 14 15 16 17 18 19 20 21 22 23 24 25 26 27 28 29 30 31 32 33 34 35 36 37 38 39 40 41 42 43 44 45 46 47 48 49 50
000
ASUS43 KDTX 311601
RWRMI
MICHIGAN HOURLY REGIONAL WEATHER ROUNDUP
NATIONAL WEATHER SERVICE DETROIT/PONTIAC MI
1100 AM EST SAT JAN 31 2015

NOTE: "FAIR" INDICATES FEW OR NO CLOUDS BELOW 12,000 FEET WITH NO
SIGNIFICANT WEATHER AND/OR OBSTRUCTION TO VISIBILITY.

MIZ047>049-052>055-059>063-066>070-074>076-081>083-311700-
SOUTHEAST LOWER MICHIGAN

CITY           SKY/WX    TMP DP  RH WIND       PRES   REMARKS
ADRIAN         SUNNY     26  18  71 W10       30.27F WCI  16
ALMA           SUNNY     26  20  80 S8        30.20F WCI  17
ANN ARBOR      SUNNY     26  18  71 W9        30.25F WCI  17
BAD AXE        CLOUDY    21  16  79 S7        30.21S WCI  13
CARO           MOSUNNY   26  18  69 S9        30.20S WCI  17
DETROIT CITY   PTSUNNY   25  15  66 S8        30.27F WCI  16
DETROIT        MOSUNNY   27  18  69 S12       30.28F WCI  17
FLINT          MOSUNNY   27  17  66 SW10      30.22F WCI  17
GROSSE ILE     SUNNY     27  18  69 S7        30.27S WCI  19
HILLSDALE      SUNNY     27  19  70 SW9       30.23S WCI  18
HOWELL         MOSUNNY   26  18  73 SW8       30.22S WCI  17

CITY           SKY/WX    TMP DP  RH WIND       PRES   REMARKS
JACKSON        SUNNY     27  18  69 W12       30.22F WCI  17
LAMBERTVILLE   SUNNY     30  19  64 SW6       30.28F WCI  24
LANSING        MOSUNNY   27  19  72 SW10      30.22F WCI  17
LAPEER         FAIR      25  17  70 SW7       30.21F WCI  17
MASON          MOSUNNY   27  18  69 SW8       30.22F WCI  18
MONROE         SUNNY     28  19  69 SW12      30.26F WCI  18
MT. CLEMENS    PTSUNNY   24  15  70 SW6       30.23F WCI  17
PONTIAC        MOSUNNY   23  15  71 SW6       30.22F WCI  16
PORT HOPE        N/A     21  13  71 SW7       30.19F WCI  12
PORT HURON     CLOUDY    23  16  74 S13       30.26S WCI  11
TRI CITIES     MOSUNNY   27  19  72 SW12      30.20F WCI  17
TROY           MOSUNNY   25  15  63 SW5       30.27F WCI  20
SAGINAW HB     SUNNY     28  21  74 SW12      30.21S WCI  18
$$
MIZ043>046-050>051-056>058-064>065-071>073-077>080-311700-
SOUTHWEST LOWER MICHIGAN

CITY           SKY/WX    TMP DP  RH WIND       PRES   REMARKS
BATTLE CREEK   SUNNY     27  18  69 SW9       30.23S WCI  18
BENTON HARBOR  CLOUDY    29  23  78 SW14      30.24S WCI  18
BIG RAPIDS     CLOUDY    27  22  84 SW7       30.14F WCI  19
COLDWATER      SUNNY     28  20  70 SW14G20   30.24S WCI  17
FREMONT        CLOUDY    24  19  83 S6        30.16F WCI  16
HOLLAND        CLOUDY    29  23  78 S13       30.21S WCI  19
GRAND RAPIDS   CLOUDY    26  20  77 SW12      30.20F WCI  16
IONIA          FAIR      30  23  74 SW9       30.19F WCI  22
KALAMAZOO      PTSUNNY   28  19  69 SW10      30.23F WCI  19
LUDINGTON      CLOUDY    31  21  67 W8        30.16F WCI  23
MARSHALL       SUNNY     26  18  71 SW9       30.23S WCI  17
MOUNT PLEASANT CLOUDY    27  19  74 SW5       30.17S WCI  21
MUSKEGON       CLOUDY    34  24  67 SW13      30.18F WCI  25
SOUTH HAVEN    CLOUDY    31  24  75 SW7G20    30.22F WCI  24
$$
MIZ016>042-311700-
NORTHERN LOWER MICHIGAN

CITY           SKY/WX    TMP DP  RH WIND       PRES   REMARKS
ALPENA         CLOUDY    18  13  80 SW6       30.15F WCI  10
BEAVER ISLAND  CLOUDY    24  17  73 W3        30.13R
BELLAIRE       CLOUDY    25  18  74 SW5       30.14S WCI  19
CADILLAC       CLOUDY    22  18  83 SW7       30.11R WCI  13
CHARLEVOIX     CLOUDY    26  20  80 W10       30.15S WCI  15
FRANKFORT      CLOUDY    28  22  77 NW9       30.15S WCI  19
GAYLORD        CLOUDY    19  15  84 SW10      30.08F WCI   7
GRAYLING       CLOUDY    21  16  80 SW5       30.11F WCI  14
HARBOR SPRINGS CLOUDY    23  18  80 SW8       30.11S WCI  14
HOUGHTON LAKE  CLOUDY    19  14  81 SW7       30.13F WCI  10
MANISTEE       CLOUDY    23  16  74 E3        30.16S
OSCODA         CLOUDY    20  15  81 SW10      30.17F WCI   9
PELLSTON       CLOUDY    23  16  74 SW7       30.12R WCI  15
TRAVERSE CITY  CLOUDY    25  17  72 SW5       30.13F WCI  19
$$
MIZ007>008-015-311700-
EASTERN UPPER MICHIGAN

CITY           SKY/WX    TMP DP  RH WIND       PRES   REMARKS
KINROSS        CLOUDY    19  18  93 SW6       30.10S WCI  11
MACKINAC ISLAN CLOUDY    21  17  84 SW6       30.10S WCI  14
NEWBERRY       FLURRIES  19  14  82 W6        30.09R WCI  10
S. S. MARIE    LGT SNOW  15  11  83 CALM      30.10S FOG
$$
MIZ004>006-011>014-085-311700-
CENTRAL UPPER MICHIGAN

CITY           SKY/WX    TMP DP  RH WIND       PRES   REMARKS
MANISTIQUE     CLOUDY    22  15  76 W8        30.12R WCI  12
ESCANABA       CLOUDY    23  12  63 W7        30.15R WCI  15
MENOMINEE      CLOUDY    23  12  63 NW5       30.15S WCI  17
SAWYER-GWINN   CLOUDY    19  16  86 NW5       30.09S WCI  13
$$
MIZ001>003-009>011-084-311700-
WESTERN UPPER MICHIGAN

CITY           SKY/WX    TMP DP  RH WIND       PRES   REMARKS
IRON MOUNTAIN  CLOUDY    23  16  74 NW8       30.11R WCI  14
HOUGHTON       LGT SNOW  18  11  74 NW14      30.13R WCI   4
COPPER HARBOR    N/A     20  14  77 NE21G28   30.15R WCI   4
IRONWOOD       CLOUDY    21  18  86 N12G18    30.14R WCI   9
$$

ABBREVIATIONS USED IN REMARKS
   TC - TEMPERATURE IN CELSIUS
  WCI - WIND CHILL INDEX
   HX - HEAT INDEX
  VSB - VISIBILITY




USA.gov is the U.S. government's official web portal to all federal, state and local government web resources and services.